レモン-パンスターズ彗星

302P/Lemmon-PanSTARRS (2016)

English version
Home page
Updated on March 3, 2018

---------------------------------------------------------------------

・ プロフィール

符号 302P/2014 K2
発見日 2014年5月21日
発見光度 21.4等
発見者 Pan-STARRS 1 telescope (Haleakala)

・ 写真集

・ 軌道要素

Epoch 2016 May 12.0 TT = JDT 2457520.5
T 2016 Apr. 30.53464 TT                                 MPCW
q   3.3022573            (2000.0)            P               Q
n   0.11130474     Peri.  208.28048     +0.86435319     +0.49489135
a   4.2801627      Node   121.78339     -0.43932172     +0.82952197
e   0.2284739      Incl.    6.03085     -0.24472432     +0.25879693
P   8.86
From 113 observations 2007 Aug. 16-2018 Jan. 15, mean residual 0".5.

・ 光度変化

        m1 = 11.0 + 5 logΔ + 10.0 log r(t - 300)

---------------------------------------------------------------------

軌道要素はM.P.E.C. 2018-B155に掲載されたものです。
光度グラフはComet for Windowsで作成したものです。

---------------------------------------------------------------------

Copyright(C) Seiichi Yoshida (comet@aerith.net). All rights reserved.